SCP
0 0 0 -0 0 0 0 0 0 0 0 0 0 0 0 0 0 0 0 -0 -0 0 0 0 0 0 0 0 0 0 0 0 0 0 0 0 0 0 0 0 0 0 0 0 0 0 0 0 0
0 0 -0 0 0 0 0 0 0 0 0 0 0 0 0 0 0 0 0 -0 0 0 0 0 0 0 0 0 0 0 0 0 0 0 0 0 0 0 0 0 0 0 0 0 0 0 0 0 1
0 0 0 0 0 0 0 0 0 0 0 0 0 0 0 0 0 0 0 0 0 0 0 0 0 0 0 0 0 0 0 0 0 0 0 0 0 0 0 0 0 0 0 0 0 0 0 0 1
0 -0 -0 0 0 0 0 0 0 0 0 0 0 0 0 -0 0 0 0 -0 -0 -0 0 0 0 0 0 0 0 0 0 0 0 0 0 0 0 0 0 0 0 0 0 0 0 0 0 0 1
0 0 0 0 0 0 0 0 0 0 0 0 0 0 0 0 0 0 -0 -0 -0 -0 -0 0 0 0 0 0 0 0 0 0 0 0 0 0 0 0 0 0 0 0 0 0 0 0 0 0 1
0 0 0 0 0 0 0 0 0 0 0 0 0 0 0 0 0 0 0 0 -0 0 0 0 0 0 0 0 0 0 0 0 0 0 0 0 0 0 0 0 0 0 0 0 0 0 0 0 1
0 0 0 0 0 0 0 0 0 0 0 0 0 0 0 0 0 0 0 0 0 0 0 0 0 0 0 0 0 0 0 0 0 0 0 0 0 0 0 0 0 0 0 0 0 1 1 0 1
0 0 0 0 0 0 0 0 0 0 0 0 0 0 0 0 0 0 0 0 0 0 0 0 0 0 0 0 0 0 0 0 0 0 0 0 0 0 1 0 0 0 0 0 0 1 1 0 1
0 0 0 0 0 0 0 0 0 0 0 0 0 0 0 0 0 0 0 0 0 0 0 0 0 0 0 0 0 0 0 0 0 0 0 0 0 1 0 0 0 0 0 0 0 0 1 1 1
0 0 0 0 0 0 0 0 0 0 0 0 0 0 0 0 0 0 0 0 0 0 0 0 0 0 0 0 0 0 0 0 0 0 0 0 0 0 0 0 0 0 0 0 1 0 0 1 1
0 0 0 0 0 0 0 0 0 0 0 0 0 0 0 0 0 0 0 0 0 0 0 0 0 -0 -0 -0 -0 -0 0 0 0 0 0 0 0 0 0 1 0 0 0 1 0 0 0 0 1
0 0 0 0 0 0 0 0 0 0 0 0 0 0 0 0 0 0 0 0 0 0 0 -0 -0 -0 -0 -0 -0 -0 -0 -0 0 0 0 0 0 0 0 0 0 0 0 0 0 0 0 0 0
0 0 0 0 0 0 0 0 0 0 0 0 0 0 0 0 0 0 0 0 0 0 0 -0 -0 -0 -0 -0 -0 -0 -0 -0 -0 0 0 0 0 0 0 0 0 0 0 0 0 0 0 0 0
0 0 0 0 0 0 0 0 0 0 0 0 0 0 0 0 0 0 0 0 0 0 -0 -0 -0 -0 -0 -0 0 0 0 -0 -0 -0 0 0 0 0 0 0 0 0 0 0 0 0 0 0 0
0 0 0 0 0 0 0 0 0 0 0 0 0 0 0 0 0 0 0 0 0 -0 -0 -0 -0 -0 -0 -0 -0 0 0 0 0 0 -0 -0 0 0 0 0 0 0 1 0 0 0 0 0 0
0 0 0 0 0 0 0 0 0 0 0 0 0 0 0 0 0 0 0 0 0 0 -0 -0 -0 0 0 0 0 0 0 0 0 0 0 -0 0 0 0 0 0 0 1 1 0 0 0 0 0
0 0 0 0 0 0 0 0 0 0 0 0 0 0 0 0 0 0 0 0 0 0 -0 -0 0 0 0 0 0 0 0 0 0 0 0 0 0 0 0 0 -0 -0 0 2 1 0 0 0 0
0 0 0 0 0 0 0 0 0 0 0 0 0 0 0 0 0 0 0 0 0 0 0 0 0 0 0 0 0 0 0 0 0 0 0 0 0 0 0 0 0 -0 0 0 1 0 0 0 0
0 0 0 0 0 0 0 0 0 0 0 0 0 0 0 0 0 0 0 0 0 0 0 0 0 0 0 0 0 0 0 0 0 0 0 0 0 0 0 0 0 -0 -0 0 0 0 0 0 0
0 0 0 0 0 0 0 0 0 0 0 0 0 0 0 0 0 0 0 0 0 0 0 0 0 0 0 0 0 0 0 0 0 0 0 0 0 0 0 0 0 -0 -0 -0 0 0 0 1 0
0 0 0 0 0 0 0 0 0 0 0 0 0 0 0 0 0 0 0 0 0 0 0 0 0 0 0 0 0 0 0 0 0 0 0 0 0 0 0 0 0 -0 -0 -0 -0 0 0 0 0
0 0 0 0 0 0 0 0 0 0 0 0 0 0 0 0 0 0 0 0 0 0 0 0 0 0 0 0 0 0 0 0 0 0 0 0 0 -0 -0 0 0 -0 -0 -0 -0 -0 0 0 0
0 0 0 0 0 0 0 0 0 0 0 0 0 0 0 0 0 0 0 0 0 0 0 0 0 0 0 0 0 0 0 0 0 0 0 0 0 0 0 0 0 0 -0 -0 -0 -0 -0 0 0
0 0 0 0 0 0 0 0 0 0 0 0 0 0 0 0 0 0 0 0 0 0 0 0 0 0 0 0 0 0 0 0 0 0 0 0 0 -0 0 0 0 0 -0 -0 -0 -0 -0 0 0
0 0 0 0 0 0 0 0 0 0 0 0 0 0 0 0 0 0 0 0 0 0 0 0 0 0 0 0 0 0 0 0 0 0 0 0 0 -0 -0 0 0 0 -0 -0 -0 0 -0 0 0
0 0 0 0 0 0 0 0 0 0 0 0 0 0 0 0 0 0 0 0 0 0 0 0 0 0 0 0 0 0 0 0 0 0 0 0 0 0 -0 0 0 0 -0 -0 -0 0 -0 -0 0
0 0 0 0 0 0 0 0 0 0 0 0 0 0 0 0 0 0 0 0 0 0 0 0 0 0 0 0 0 0 0 0 0 0 0 0 0 0 0 0 0 0 0 -0 -0 0 -0 -0 0
0 0 0 0 0 0 0 0 0 0 0 0 0 0 0 0 0 0 0 0 0 0 0 0 0 0 0 0 0 0 0 0 0 0 0 0 0 0 0 0 0 0 0 -0 -0 -0 -0 -0 0
0 0 0 0 0 0 0 0 0 0 0 0 0 0 0 0 0 0 0 0 0 0 0 0 0 0 0 0 0 0 0 0 0 0 0 0 0 0 0 -0 0 0 0 0 -0 -0 -0 -0 -0
0 0 0 0 0 0 0 0 0 0 0 0 0 0 0 0 0 0 0 0 0 0 0 0 0 0 0 0 0 0 0 0 0 0 0 0 0 0 0 -0 -0 0 0 0 -0 -0 -0 -0 0
Wind_Speed_500mb
7 4 8 5 8 11 3 0 6 11 7 11 9 8 2 10 3 8 30 47 43 29 31 28 24 21 18 16 16 19 22 22 24 24 24 24 27 28 29 29 31 32 36 35 33 30 29 29 32
9 5 5 2 9 8 6 5 11 9 9 8 11 15 11 9 32 27 36 38 39 29 30 35 30 22 17 12 16 18 23 24 27 29 29 30 31 31 30 30 32 32 34 34 33 33 32 34 33
7 7 4 7 6 7 8 3 8 10 17 9 5 19 21 36 37 19 40 24 25 28 26 27 29 29 25 16 17 20 23 29 33 35 36 38 36 35 37 35 35 34 35 34 31 32 33 38 36
14 4 3 7 10 8 14 4 9 8 12 10 4 19 33 49 23 28 17 20 18 19 21 26 27 24 23 23 23 24 29 32 36 40 43 42 43 42 41 42 40 36 33 32 31 30 32 39 40
13 4 7 3 5 9 9 17 10 8 8 16 12 14 19 47 25 26 29 27 25 25 26 24 20 16 16 20 23 27 32 35 40 42 45 48 49 49 47 47 44 39 35 37 35 39 35 38 44
9 3 7 3 6 10 8 19 15 14 27 13 16 21 20 33 36 37 28 26 24 26 26 27 29 32 24 15 19 28 36 39 43 46 48 50 52 51 51 51 49 46 42 41 41 40 41 40 45
4 6 6 1 8 8 4 10 10 10 10 20 10 12 24 39 31 26 27 25 28 32 33 37 37 31 32 37 34 26 30 35 44 47 51 53 55 54 55 56 53 52 50 47 45 42 43 47 45
6 7 7 4 2 4 2 11 17 21 21 15 12 10 10 30 21 22 24 29 34 37 41 45 46 46 48 42 36 38 35 34 40 45 48 54 59 59 60 58 58 57 56 54 49 46 46 46 50
3 7 5 5 7 7 9 6 24 31 49 49 29 34 21 10 20 26 32 35 35 37 43 48 51 54 55 54 52 49 41 37 39 39 43 51 61 68 69 63 61 61 60 59 56 53 49 50 53
8 5 2 2 4 4 4 9 10 11 22 27 44 30 13 16 27 35 36 39 41 46 49 52 56 57 57 57 57 58 56 53 44 48 52 49 56 62 63 64 63 67 65 67 65 62 58 55 57
5 5 4 7 14 10 4 12 5 34 9 10 32 30 22 20 27 32 34 37 41 45 51 61 65 69 72 72 70 63 60 59 58 50 49 63 63 61 68 69 69 71 72 73 70 66 67 64 62
4 15 2 7 13 5 3 10 12 7 22 29 28 23 16 20 27 32 35 38 46 52 57 64 75 80 81 80 77 77 77 70 58 59 57 52 64 73 72 73 77 78 78 80 75 69 67 68 66
7 7 7 11 5 2 6 17 20 36 35 26 23 17 16 18 23 31 34 40 48 58 60 68 75 80 80 79 80 81 81 77 73 60 61 63 59 64 76 82 79 81 83 87 82 75 69 68 69
6 11 20 9 8 9 8 22 19 27 32 27 20 22 20 21 23 28 37 45 49 56 66 73 74 74 76 81 76 75 76 81 77 79 65 63 64 60 63 78 85 82 87 90 88 81 78 76 72
2 7 6 11 11 8 8 5 10 49 35 35 30 27 23 21 22 31 34 37 42 58 72 80 76 72 71 71 80 78 70 75 78 80 83 72 71 73 72 70 64 88 89 91 90 85 81 75 71
3 3 2 8 16 8 6 10 13 53 47 38 31 23 17 13 18 24 27 32 42 59 69 71 74 73 73 76 79 77 81 80 88 80 83 84 73 78 77 79 80 52 83 91 98 98 89 84 81
7 6 6 7 16 5 6 9 28 54 47 40 32 25 15 11 14 24 27 35 46 62 65 64 68 71 74 80 83 87 79 79 92 101 91 80 87 83 81 76 85 84 51 88 95 113 101 99 89
7 9 8 9 6 12 13 12 16 54 48 42 35 27 16 11 16 20 22 29 41 59 57 59 67 70 72 80 84 82 81 84 96 106 103 89 94 82 86 85 88 86 88 44 94 102 129 111 99
7 9 13 16 8 10 13 13 26 40 41 42 39 30 18 10 10 14 14 27 50 61 59 59 66 71 72 81 85 87 88 97 107 118 94 90 91 90 92 88 89 86 86 104 59 75 120 115 103
11 13 16 15 8 1 11 20 15 45 41 50 43 30 22 11 7 7 17 29 50 62 59 65 67 73 81 87 84 84 98 101 101 104 90 92 98 91 85 87 89 95 90 92 115 75 87 124 118
10 11 9 14 11 13 14 15 14 11 29 45 38 28 19 9 3 8 19 33 50 61 57 68 69 75 85 85 97 102 103 111 107 100 86 75 84 79 88 91 85 88 85 74 98 96 56 62 116
11 5 4 9 9 8 4 18 7 19 24 26 44 35 21 11 2 7 17 30 47 56 58 68 70 78 86 91 101 105 108 111 113 105 105 110 89 82 81 79 82 91 92 72 75 103 98 78 100
11 3 9 10 18 6 12 9 11 24 24 24 29 29 18 9 1 11 21 35 46 56 63 72 75 81 90 95 103 110 114 111 111 102 105 99 96 83 77 86 88 90 92 92 58 84 105 82 99
4 6 11 8 3 7 18 22 8 14 27 29 31 30 20 8 3 14 30 39 50 59 70 82 79 90 95 102 109 111 103 113 106 107 94 86 78 79 74 65 76 86 86 85 62 71 84 87 68
4 7 9 10 4 14 3 3 27 14 14 36 31 35 20 6 5 22 33 46 64 68 69 84 84 96 99 105 111 113 110 103 95 98 85 77 80 80 83 58 54 75 79 81 71 56 77 93 74
12 13 9 13 8 19 11 15 9 3 35 51 41 33 19 5 9 23 43 65 62 61 79 85 89 98 102 109 114 118 119 98 107 87 88 95 91 86 86 81 61 58 77 75 82 65 60 103 92
5 9 4 3 3 5 9 9 6 4 13 25 35 29 17 4 16 38 52 56 57 59 86 86 90 98 104 111 116 122 119 111 101 85 99 81 74 81 78 81 76 53 74 74 79 62 59 75 93
5 5 5 3 7 13 12 16 18 23 26 16 18 22 7 12 23 32 41 51 55 69 85 85 90 98 105 111 116 122 125 115 96 105 89 83 86 71 66 70 73 61 55 73 77 74 59 51 82
2 7 7 5 9 9 5 12 8 34 30 22 19 20 8 8 13 31 48 56 60 78 84 89 93 99 105 109 114 118 121 111 103 95 96 90 70 68 70 72 65 64 50 64 70 69 59 45 58
7 19 20 11 13 10 23 40 13 24 22 32 31 23 12 9 21 37 49 59 68 83 85 91 94 100 106 109 112 114 115 110 98 97 102 86 73 70 74 73 72 72 63 44 67 54 62 49 57
Wind_Direction_500mb
27 111 111 75 63 62 48 38 79 44 50 43 45 66 87 42 68 85 29 8 1 354 341 334 342 346 341 320 282 274 279 278 273 278 276 276 281 280 284 290 283 268 263 264 263 254 245 237 232
36 36 42 5 84 85 300 62 71 125 113 51 82 63 86 63 80 64 18 9 1 4 346 345 334 333 331 310 295 291 283 280 277 276 271 275 277 281 279 288 292 284 265 261 262 260 248 234 232
41 16 6 102 128 130 133 327 58 126 115 86 85 61 28 328 29 30 26 8 9 16 4 352 350 335 322 298 282 282 283 287 286 277 272 274 276 276 279 282 289 287 272 266 262 260 252 237 230
24 8 271 83 124 30 129 136 60 122 92 78 100 74 64 47 45 37 10 2 0 12 6 350 347 343 322 307 290 287 286 284 287 282 278 274 276 278 279 282 285 284 272 262 265 269 262 243 230
17 4 33 9 69 110 96 79 49 359 125 146 98 84 84 38 25 19 10 1 9 7 9 7 9 4 353 327 302 281 282 285 285 283 279 276 276 276 276 278 279 276 265 261 256 258 260 256 234
13 21 45 44 111 131 64 65 81 54 52 55 65 102 52 39 14 16 16 17 7 8 4 357 354 353 344 324 311 300 286 277 281 282 282 280 277 275 274 274 273 269 264 259 257 254 257 254 238
71 72 226 267 166 69 142 96 82 72 51 23 35 90 67 36 18 7 17 21 31 36 33 31 24 7 346 340 332 305 298 293 281 276 279 280 279 276 273 273 270 268 263 259 259 257 254 251 243
15 95 306 17 102 106 119 87 99 83 32 55 79 63 49 50 9 1 17 25 29 29 30 27 24 19 21 14 353 330 309 298 297 284 282 278 278 276 273 269 268 269 264 261 257 255 254 254 247
30 65 318 359 61 119 58 106 74 89 87 75 86 88 89 23 354 8 20 22 22 25 23 20 17 14 11 8 3 0 343 313 292 291 290 288 285 272 270 265 266 267 266 261 259 257 256 254 248
61 88 264 19 71 106 68 115 116 92 99 86 91 90 68 33 33 39 31 32 26 18 15 13 7 4 359 357 354 352 349 344 332 291 289 290 286 285 275 268 262 264 265 264 262 259 257 251 247
357 208 333 54 91 52 14 61 97 126 56 106 116 101 77 47 42 43 33 28 26 18 9 5 360 355 351 347 344 339 338 336 333 327 302 285 286 287 280 273 267 259 261 262 261 259 254 250 243
4 269 344 360 30 50 6 97 84 76 122 129 121 110 92 55 46 41 33 22 15 13 8 1 356 351 349 346 343 339 336 332 323 316 312 311 286 282 283 280 271 262 258 259 261 257 253 249 242
181 268 280 312 337 20 323 143 126 120 140 141 121 100 75 50 37 27 21 15 9 7 5 0 354 349 347 343 341 340 337 334 328 319 307 308 305 291 281 279 278 266 255 253 257 254 249 245 240
314 301 286 297 190 178 138 138 105 162 143 123 111 94 77 55 33 17 14 8 4 1 359 357 352 347 341 340 343 342 337 335 327 322 315 303 300 295 287 281 277 272 259 252 255 250 248 242 235
253 318 5 213 199 220 179 215 156 155 149 132 124 115 99 70 30 26 12 4 358 357 354 352 346 344 346 346 339 338 338 331 326 321 315 311 303 300 288 289 285 271 265 256 249 246 242 240 231
316 149 129 254 170 236 135 262 164 158 152 145 141 136 127 77 39 20 5 354 352 356 355 347 343 344 345 340 334 328 324 323 325 318 314 311 307 301 301 289 281 288 269 261 247 243 233 231 225
1 283 294 328 215 155 163 243 175 173 161 155 150 144 136 87 42 14 0 351 355 353 352 346 345 345 341 336 331 326 321 315 317 322 311 308 306 305 306 302 289 276 288 256 249 240 230 225 221
278 303 301 269 237 202 200 243 168 180 169 166 157 150 138 96 42 9 352 339 346 353 351 346 345 341 338 335 333 331 325 317 313 313 311 306 304 306 304 303 299 297 276 318 245 240 223 221 216
255 258 254 267 247 187 231 248 190 185 177 170 167 160 153 99 37 11 327 333 346 353 353 348 342 339 342 335 337 332 326 314 308 308 308 304 304 300 303 301 301 304 284 268 306 254 231 213 213
235 263 273 282 168 338 257 253 245 185 187 175 168 167 164 133 40 7 325 333 343 350 351 345 342 339 342 340 332 322 316 313 314 311 301 297 299 297 293 297 297 301 306 279 274 297 252 209 205
252 231 253 255 328 300 283 272 207 193 173 180 174 176 150 127 10 341 328 334 340 347 344 343 340 339 339 334 330 329 322 319 317 312 305 300 289 289 293 292 290 290 299 285 273 270 302 226 198
264 176 229 280 350 248 126 290 198 175 184 184 183 175 154 133 36 323 327 333 339 341 341 342 342 333 331 333 332 331 327 319 319 312 308 294 289 293 286 289 286 284 289 283 284 266 277 302 211
242 43 249 254 249 357 237 255 256 163 205 196 182 166 148 143 282 325 331 332 334 341 340 345 332 329 332 332 335 332 328 323 318 311 309 301 293 285 287 283 282 279 285 295 272 267 275 293 224
16 306 265 222 169 260 240 207 234 180 218 175 171 160 153 151 282 323 334 332 338 341 345 336 330 329 332 332 333 332 324 327 318 315 309 307 305 290 284 285 280 275 283 291 281 266 267 256 250
74 49 320 339 338 238 209 286 245 221 198 172 160 156 154 146 323 333 335 337 346 345 337 332 330 330 332 331 331 332 325 324 315 314 307 308 304 296 276 286 300 280 281 290 286 281 263 270 299
191 165 170 260 242 284 335 256 245 126 120 136 144 148 150 152 320 333 344 351 341 336 331 331 332 328 331 330 330 331 329 321 319 313 305 300 299 296 277 276 292 290 277 283 294 283 266 263 276
191 186 166 278 135 4 242 275 344 158 133 139 146 153 161 193 334 351 349 341 337 327 330 331 329 330 331 329 329 330 329 320 320 307 316 306 301 295 289 278 285 290 276 275 284 291 274 272 264
211 181 71 77 289 275 268 264 237 193 198 179 167 163 182 335 347 341 337 340 336 326 329 329 332 331 330 330 329 328 328 324 315 314 319 300 297 297 296 278 270 278 286 276 282 293 275 276 275
137 235 230 190 173 233 293 248 233 195 185 183 175 171 212 289 314 336 342 344 331 326 331 332 333 331 332 330 328 327 327 324 317 312 315 308 297 285 280 275 269 269 283 272 274 284 279 271 270
175 202 191 210 228 238 252 271 182 185 162 167 172 189 211 256 334 343 342 339 329 330 332 332 333 332 331 330 327 327 327 327 318 314 316 310 299 291 281 279 267 259 270 281 266 279 274 272 260
Wind_Speed_850mb
7 4 8 5 8 11 3 0 6 11 7 11 9 8 2 10 3 8 30 47 43 29 31 28 24 21 18 16 16 19 22 22 24 24 24 24 27 28 29 29 31 32 36 35 33 30 29 29 32
9 5 5 2 9 8 6 5 11 9 9 8 11 15 11 9 32 27 36 38 39 29 30 35 30 22 17 12 16 18 23 24 27 29 29 30 31 31 30 30 32 32 34 34 33 33 32 34 33
7 7 4 7 6 7 8 3 8 10 17 9 5 19 21 36 37 19 40 24 25 28 26 27 29 29 25 16 17 20 23 29 33 35 36 38 36 35 37 35 35 34 35 34 31 32 33 38 36
14 4 3 7 10 8 14 4 9 8 12 10 4 19 33 49 23 28 17 20 18 19 21 26 27 24 23 23 23 24 29 32 36 40 43 42 43 42 41 42 40 36 33 32 31 30 32 39 40
13 4 7 3 5 9 9 17 10 8 8 16 12 14 19 47 25 26 29 27 25 25 26 24 20 16 16 20 23 27 32 35 40 42 45 48 49 49 47 47 44 39 35 37 35 39 35 38 44
9 3 7 3 6 10 8 19 15 14 27 13 16 21 20 33 36 37 28 26 24 26 26 27 29 32 24 15 19 28 36 39 43 46 48 50 52 51 51 51 49 46 42 41 41 40 41 40 45
4 6 6 1 8 8 4 10 10 10 10 20 10 12 24 39 31 26 27 25 28 32 33 37 37 31 32 37 34 26 30 35 44 47 51 53 55 54 55 56 53 52 50 47 45 42 43 47 45
6 7 7 4 2 4 2 11 17 21 21 15 12 10 10 30 21 22 24 29 34 37 41 45 46 46 48 42 36 38 35 34 40 45 48 54 59 59 60 58 58 57 56 54 49 46 46 46 50
3 7 5 5 7 7 9 6 24 31 49 49 29 34 21 10 20 26 32 35 35 37 43 48 51 54 55 54 52 49 41 37 39 39 43 51 61 68 69 63 61 61 60 59 56 53 49 50 53
8 5 2 2 4 4 4 9 10 11 22 27 44 30 13 16 27 35 36 39 41 46 49 52 56 57 57 57 57 58 56 53 44 48 52 49 56 62 63 64 63 67 65 67 65 62 58 55 57
5 5 4 7 14 10 4 12 5 34 9 10 32 30 22 20 27 32 34 37 41 45 51 61 65 69 72 72 70 63 60 59 58 50 49 63 63 61 68 69 69 71 72 73 70 66 67 64 62
4 15 2 7 13 5 3 10 12 7 22 29 28 23 16 20 27 32 35 38 46 52 57 64 75 80 81 80 77 77 77 70 58 59 57 52 64 73 72 73 77 78 78 80 75 69 67 68 66
7 7 7 11 5 2 6 17 20 36 35 26 23 17 16 18 23 31 34 40 48 58 60 68 75 80 80 79 80 81 81 77 73 60 61 63 59 64 76 82 79 81 83 87 82 75 69 68 69
6 11 20 9 8 9 8 22 19 27 32 27 20 22 20 21 23 28 37 45 49 56 66 73 74 74 76 81 76 75 76 81 77 79 65 63 64 60 63 78 85 82 87 90 88 81 78 76 72
2 7 6 11 11 8 8 5 10 49 35 35 30 27 23 21 22 31 34 37 42 58 72 80 76 72 71 71 80 78 70 75 78 80 83 72 71 73 72 70 64 88 89 91 90 85 81 75 71
3 3 2 8 16 8 6 10 13 53 47 38 31 23 17 13 18 24 27 32 42 59 69 71 74 73 73 76 79 77 81 80 88 80 83 84 73 78 77 79 80 52 83 91 98 98 89 84 81
7 6 6 7 16 5 6 9 28 54 47 40 32 25 15 11 14 24 27 35 46 62 65 64 68 71 74 80 83 87 79 79 92 101 91 80 87 83 81 76 85 84 51 88 95 113 101 99 89
7 9 8 9 6 12 13 12 16 54 48 42 35 27 16 11 16 20 22 29 41 59 57 59 67 70 72 80 84 82 81 84 96 106 103 89 94 82 86 85 88 86 88 44 94 102 129 111 99
7 9 13 16 8 10 13 13 26 40 41 42 39 30 18 10 10 14 14 27 50 61 59 59 66 71 72 81 85 87 88 97 107 118 94 90 91 90 92 88 89 86 86 104 59 75 120 115 103
11 13 16 15 8 1 11 20 15 45 41 50 43 30 22 11 7 7 17 29 50 62 59 65 67 73 81 87 84 84 98 101 101 104 90 92 98 91 85 87 89 95 90 92 115 75 87 124 118
10 11 9 14 11 13 14 15 14 11 29 45 38 28 19 9 3 8 19 33 50 61 57 68 69 75 85 85 97 102 103 111 107 100 86 75 84 79 88 91 85 88 85 74 98 96 56 62 116
11 5 4 9 9 8 4 18 7 19 24 26 44 35 21 11 2 7 17 30 47 56 58 68 70 78 86 91 101 105 108 111 113 105 105 110 89 82 81 79 82 91 92 72 75 103 98 78 100
11 3 9 10 18 6 12 9 11 24 24 24 29 29 18 9 1 11 21 35 46 56 63 72 75 81 90 95 103 110 114 111 111 102 105 99 96 83 77 86 88 90 92 92 58 84 105 82 99
4 6 11 8 3 7 18 22 8 14 27 29 31 30 20 8 3 14 30 39 50 59 70 82 79 90 95 102 109 111 103 113 106 107 94 86 78 79 74 65 76 86 86 85 62 71 84 87 68
4 7 9 10 4 14 3 3 27 14 14 36 31 35 20 6 5 22 33 46 64 68 69 84 84 96 99 105 111 113 110 103 95 98 85 77 80 80 83 58 54 75 79 81 71 56 77 93 74
12 13 9 13 8 19 11 15 9 3 35 51 41 33 19 5 9 23 43 65 62 61 79 85 89 98 102 109 114 118 119 98 107 87 88 95 91 86 86 81 61 58 77 75 82 65 60 103 92
5 9 4 3 3 5 9 9 6 4 13 25 35 29 17 4 16 38 52 56 57 59 86 86 90 98 104 111 116 122 119 111 101 85 99 81 74 81 78 81 76 53 74 74 79 62 59 75 93
5 5 5 3 7 13 12 16 18 23 26 16 18 22 7 12 23 32 41 51 55 69 85 85 90 98 105 111 116 122 125 115 96 105 89 83 86 71 66 70 73 61 55 73 77 74 59 51 82
2 7 7 5 9 9 5 12 8 34 30 22 19 20 8 8 13 31 48 56 60 78 84 89 93 99 105 109 114 118 121 111 103 95 96 90 70 68 70 72 65 64 50 64 70 69 59 45 58
7 19 20 11 13 10 23 40 13 24 22 32 31 23 12 9 21 37 49 59 68 83 85 91 94 100 106 109 112 114 115 110 98 97 102 86 73 70 74 73 72 72 63 44 67 54 62 49 57
Wind_Direction_850mb
27 111 111 75 63 62 48 38 79 44 50 43 45 66 87 42 68 85 29 8 1 354 341 334 342 346 341 320 282 274 279 278 273 278 276 276 281 280 284 290 283 268 263 264 263 254 245 237 232
36 36 42 5 84 85 300 62 71 125 113 51 82 63 86 63 80 64 18 9 1 4 346 345 334 333 331 310 295 291 283 280 277 276 271 275 277 281 279 288 292 284 265 261 262 260 248 234 232
41 16 6 102 128 130 133 327 58 126 115 86 85 61 28 328 29 30 26 8 9 16 4 352 350 335 322 298 282 282 283 287 286 277 272 274 276 276 279 282 289 287 272 266 262 260 252 237 230
24 8 271 83 124 30 129 136 60 122 92 78 100 74 64 47 45 37 10 2 0 12 6 350 347 343 322 307 290 287 286 284 287 282 278 274 276 278 279 282 285 284 272 262 265 269 262 243 230
17 4 33 9 69 110 96 79 49 359 125 146 98 84 84 38 25 19 10 1 9 7 9 7 9 4 353 327 302 281 282 285 285 283 279 276 276 276 276 278 279 276 265 261 256 258 260 256 234
13 21 45 44 111 131 64 65 81 54 52 55 65 102 52 39 14 16 16 17 7 8 4 357 354 353 344 324 311 300 286 277 281 282 282 280 277 275 274 274 273 269 264 259 257 254 257 254 238
71 72 226 267 166 69 142 96 82 72 51 23 35 90 67 36 18 7 17 21 31 36 33 31 24 7 346 340 332 305 298 293 281 276 279 280 279 276 273 273 270 268 263 259 259 257 254 251 243
15 95 306 17 102 106 119 87 99 83 32 55 79 63 49 50 9 1 17 25 29 29 30 27 24 19 21 14 353 330 309 298 297 284 282 278 278 276 273 269 268 269 264 261 257 255 254 254 247
30 65 318 359 61 119 58 106 74 89 87 75 86 88 89 23 354 8 20 22 22 25 23 20 17 14 11 8 3 0 343 313 292 291 290 288 285 272 270 265 266 267 266 261 259 257 256 254 248
61 88 264 19 71 106 68 115 116 92 99 86 91 90 68 33 33 39 31 32 26 18 15 13 7 4 359 357 354 352 349 344 332 291 289 290 286 285 275 268 262 264 265 264 262 259 257 251 247
357 208 333 54 91 52 14 61 97 126 56 106 116 101 77 47 42 43 33 28 26 18 9 5 360 355 351 347 344 339 338 336 333 327 302 285 286 287 280 273 267 259 261 262 261 259 254 250 243
4 269 344 360 30 50 6 97 84 76 122 129 121 110 92 55 46 41 33 22 15 13 8 1 356 351 349 346 343 339 336 332 323 316 312 311 286 282 283 280 271 262 258 259 261 257 253 249 242
181 268 280 312 337 20 323 143 126 120 140 141 121 100 75 50 37 27 21 15 9 7 5 0 354 349 347 343 341 340 337 334 328 319 307 308 305 291 281 279 278 266 255 253 257 254 249 245 240
314 301 286 297 190 178 138 138 105 162 143 123 111 94 77 55 33 17 14 8 4 1 359 357 352 347 341 340 343 342 337 335 327 322 315 303 300 295 287 281 277 272 259 252 255 250 248 242 235
253 318 5 213 199 220 179 215 156 155 149 132 124 115 99 70 30 26 12 4 358 357 354 352 346 344 346 346 339 338 338 331 326 321 315 311 303 300 288 289 285 271 265 256 249 246 242 240 231
316 149 129 254 170 236 135 262 164 158 152 145 141 136 127 77 39 20 5 354 352 356 355 347 343 344 345 340 334 328 324 323 325 318 314 311 307 301 301 289 281 288 269 261 247 243 233 231 225
1 283 294 328 215 155 163 243 175 173 161 155 150 144 136 87 42 14 0 351 355 353 352 346 345 345 341 336 331 326 321 315 317 322 311 308 306 305 306 302 289 276 288 256 249 240 230 225 221
278 303 301 269 237 202 200 243 168 180 169 166 157 150 138 96 42 9 352 339 346 353 351 346 345 341 338 335 333 331 325 317 313 313 311 306 304 306 304 303 299 297 276 318 245 240 223 221 216
255 258 254 267 247 187 231 248 190 185 177 170 167 160 153 99 37 11 327 333 346 353 353 348 342 339 342 335 337 332 326 314 308 308 308 304 304 300 303 301 301 304 284 268 306 254 231 213 213
235 263 273 282 168 338 257 253 245 185 187 175 168 167 164 133 40 7 325 333 343 350 351 345 342 339 342 340 332 322 316 313 314 311 301 297 299 297 293 297 297 301 306 279 274 297 252 209 205
252 231 253 255 328 300 283 272 207 193 173 180 174 176 150 127 10 341 328 334 340 347 344 343 340 339 339 334 330 329 322 319 317 312 305 300 289 289 293 292 290 290 299 285 273 270 302 226 198
264 176 229 280 350 248 126 290 198 175 184 184 183 175 154 133 36 323 327 333 339 341 341 342 342 333 331 333 332 331 327 319 319 312 308 294 289 293 286 289 286 284 289 283 284 266 277 302 211
242 43 249 254 249 357 237 255 256 163 205 196 182 166 148 143 282 325 331 332 334 341 340 345 332 329 332 332 335 332 328 323 318 311 309 301 293 285 287 283 282 279 285 295 272 267 275 293 224
16 306 265 222 169 260 240 207 234 180 218 175 171 160 153 151 282 323 334 332 338 341 345 336 330 329 332 332 333 332 324 327 318 315 309 307 305 290 284 285 280 275 283 291 281 266 267 256 250
74 49 320 339 338 238 209 286 245 221 198 172 160 156 154 146 323 333 335 337 346 345 337 332 330 330 332 331 331 332 325 324 315 314 307 308 304 296 276 286 300 280 281 290 286 281 263 270 299
191 165 170 260 242 284 335 256 245 126 120 136 144 148 150 152 320 333 344 351 341 336 331 331 332 328 331 330 330 331 329 321 319 313 305 300 299 296 277 276 292 290 277 283 294 283 266 263 276
191 186 166 278 135 4 242 275 344 158 133 139 146 153 161 193 334 351 349 341 337 327 330 331 329 330 331 329 329 330 329 320 320 307 316 306 301 295 289 278 285 290 276 275 284 291 274 272 264
211 181 71 77 289 275 268 264 237 193 198 179 167 163 182 335 347 341 337 340 336 326 329 329 332 331 330 330 329 328 328 324 315 314 319 300 297 297 296 278 270 278 286 276 282 293 275 276 275
137 235 230 190 173 233 293 248 233 195 185 183 175 171 212 289 314 336 342 344 331 326 331 332 333 331 332 330 328 327 327 324 317 312 315 308 297 285 280 275 269 269 283 272 274 284 279 271 270
175 202 191 210 228 238 252 271 182 185 162 167 172 189 211 256 334 343 342 339 329 330 332 332 333 332 331 330 327 327 327 327 318 314 316 310 299 291 281 279 267 259 270 281 266 279 274 272 260